Weather Service Report


802 
ASUS45 KREV 110610
RWRNV 
NEVADA REGIONAL WEATHER ROUNDUP
NATIONAL WEATHER SERVICE RENO NV
1000 PM PST WED FEB 10 2016

NOTE: "FAIR" INDICATES FEW OR NO CLOUDS BELOW 12,000 FEET WITH NO
SIGNIFICANT WEATHER AND/OR OBSTRUCTIONS TO VISIBILITY.

NVZ001-003-004-110700-
WESTERN NEVADA
  
CITY           SKY/WX    TMP DP  RH WIND       PRES   REMARKS
RENO           PTCLDY    44  30  57 CALM      30.34F                  
6HR MIN TEMP:  43; 6HR MAX TEMP:  62;                                

CARSON CITY    FAIR      36  32  87 E3        30.36S                  
MINDEN         FAIR      32  28  86 SE6       30.37S                  
SLIDE MTN        N/A     41  14  33 S10         N/A                   
PYRAMID LAKE     N/A     46 N/A N/A N2          N/A                   
FALLON         MOCLDY    38  36  92 S6        30.34S                  
6HR MIN TEMP:  38; 6HR MAX TEMP:  58;                                

LOVELOCK       MOCLDY    32  25  75 NE6       30.34S                  
6HR MIN TEMP:  32; 6HR MAX TEMP:  58;                                

HAWTHORNE      CLEAR     41  30  65 S6        30.35R                  
$$

NVZ002-CAZ072-073-110700-
NORTHERN AND CENTRAL SIERRA
  
CITY           SKY/WX    TMP DP  RH WIND       PRES   REMARKS
S. LAKE TAHOE  CLEAR     29  24  82 S3        30.38F                  
6HR MIN TEMP:  28; 6HR MAX TEMP:  48;                                

TRUCKEE        PTCLDY    32  25  74 CALM      30.38F                  
SQUAW VLY 8000   N/A     39  12  33 S1          N/A                   
SUSANVILLE     CLEAR     37  34  87 W5        30.34S                  
BLUE CANYON    MOCLDY    58   7  13 NE3       30.32S                  
MAMMOTH LAKES  FAIR      34  19  55 CALM      30.44F                  
BRIDGEPORT     FAIR      32  20  61 CALM      30.41R                  
$$

NVZ030-031-036-110700-
NORTHERN NEVADA
  
CITY           SKY/WX    TMP DP  RH WIND       PRES   REMARKS
ELKO           CLOUDY    19  14  81 E5        30.44S                  
6HR MIN TEMP:  17; 6HR MAX TEMP:  32;                                

WINNEMUCCA     PTCLDY    39  30  70 NE9       30.36S                  
6HR MIN TEMP:  38; 6HR MAX TEMP:  53;                                

WENDOVER       CLOUDY    30  27  86 CALM      30.46S                  
$$

NVZ035-037-110700-
CENTRAL NEVADA
  
CITY           SKY/WX    TMP DP  RH WIND       PRES   REMARKS
ELY            MOCLDY    20  12  71 S15       30.42R                  
6HR MIN TEMP:  19; 6HR MAX TEMP:  37;                                

EUREKA           N/A     14  10  84 S6        30.43R                  
6HR MIN TEMP:  13; 6HR MAX TEMP:  35;                                

$$

NVZ013-014-110700-
SOUTH CENTRAL NEVADA
  
CITY           SKY/WX    TMP DP  RH WIND       PRES   REMARKS
TONOPAH        MOCLDY    36  27  69 N12       30.38F                  
6HR MIN TEMP:  35; 6HR MAX TEMP:  52;                                

$$

NVZ017-020-022-110700-
SOUTHERN NEVADA
  
CITY           SKY/WX    TMP DP  RH WIND       PRES   REMARKS
LAS VEGAS      CLEAR     55  27  34 SW3       30.21R                  
6HR MIN TEMP:  55; 6HR MAX TEMP:  72;                                

N. LAS VEGAS   PTCLDY    54  29  38 NW6       30.24R                  
6HR MIN TEMP:  53; 6HR MAX TEMP:  71;                                

NELLIS AFB     NOT AVBL                                               
HENDERSON      CLEAR     51  25  36 S9        30.27R                  
6HR MIN TEMP:  50; 6HR MAX TEMP:  70;                                

MERCURY        PTCLDY    48  26  42 E5        30.27S                  
6HR MIN TEMP:  48; 6HR MAX TEMP:  72;                                

$$
  

Return to Home page


Western Regional Climate Center, wrcc@dri.edu